User: anonymous   Login
Location: Eppenbrunn
(49.1158°N, 7.5601°E)
Time: 11:54:57
(UTC+00:00)
Language:

IGS 5A - Orbit

View from above orbital plane
View from above orbital plane
View from above satellite
View from above satellite

Ground track
Ground track

The orbit data is extracted from the following two-line orbital elements,

1 36104U 09066A   20188.92397328 0.00000050  00000-0  47204-5 0    07
2 36104  97.5882 250.2043 0002997 149.6311 210.3688 14.93810279    05
Epoch (UTC): 06 July 2020 22:10:31
Eccentricity: 0.0002997
inclination: 97.5882°
perigee height: 584 km
apogee height: 588 km
right ascension of ascending node: 250.2043°
argument of perigee: 149.6311°
revolutions per day: 14.93810279
mean anomaly at epoch: 210.3688°
orbit number at epoch: 0

The dashed part of the orbit path shows where the satellite is in the earth's shadow,  

DLR